CZ-3B DEB, 40159

Orbit data source: Space-Track

CZ-3B DEB, 40159 is space debris in HEO originally from a launch on Sat, 04 Sep 2010 UTC launched from the Xichang Space Center, China (XSC). Debris objects in space refer to the collection of defunct objects orbiting the Earth. Examples of debris include non-operational satellites, rocket bodies, and fragments generated from explosions, collisions, or faulty payload assembly.

Loading next visibility...
Identifier
40159, 2010-042L
Orbit
HEO
Country
Flag of CNCN / PRC
Related business
Manufacturer
CALT
Mission
Spacecraft
Bus & Motor
Unknown
Mass
Unknown
Launch date (UTC)
2010-09-04 (16 years ago)
Launch vehicle
Unknown
Launch site
Xichang Space Center, China (XSC)
Object type
Payload
Rocket body
Debris
Shape & HBR
Unknown shape, 0.1 m
Radar Cross Section
Medium (>0.1 m² and <1 m²)

Expand to show TLE details & history
Last TLE update: 5 months ago

TLE from 5 months ago
0 CZ-3B DEB
1 40159U 10042L   26049.97521708  .00007611  00000-0  73008-2 0  9991
2 40159  26.9874  41.4139 6970695 231.3711  43.1888  2.62871057101270
Epoch: 2026-02-18T23:24Z
TLE epoch observation values (Epoch: 2026-02-18T23:24:18.755Z)
Latitude
-0.00014°
Longitude
-98.61246°
Altitude
13,806.768 km
Speed
4.639 km/s
True Right ascension
02h 45m 35s
True Declination
0° 00' 01"
Sunlit
Object was in daylight at epoch
Visualization orbit readout
Latitude
Unknown
Longitude
Unknown
Altitude
Unknown
Speed
Unknown
Apparent Right ascension
Unknown
Apparent Declination
Unknown
Sunlit
N/A
Visualization observer readout
Local Sidereal Time
18:17:29
Azimuth
Unknown
Elevation
Unknown
Doppler factor
Unknown
Orbital elements
Apogee altitude
31,264.451 km
Perigee altitude
341.145 km
Semi-major axis
22,180.935 km
Eccentricity
0.69707
Inclination
26.9874°
RAAN
41.4139°
Arg. of periapsis
231.3711°
True anomaly
128.80123°
Mean anomaly
43.1888°
Eccentric anomaly
82.81425°
Mean motion
0.65701 °/min
Orbital period
547.94 mins
BSTAR
0.0073008
Loading maneuver chart data...
Computing Atmospheric mass density...
Loading historical data...
Loading historical data...
Loading historical data...
Loading historical data...
Loading historical data...
Loading historical data...
Loading historical data...

Documentation

Showing up to 5 results
|